Back to catalog

STARLINK-36423

AliveCommunicationsVLEO
NORAD 67448·PAYLOAD·🇺🇸 United States

Launched Jan 14, 2026 from Cape Canaveral Space Force Station

Loading…

Next Passes (next 24 hours)

TLE

FreshSource: CelesTrak SupGP

Epoch: Sep 14, 2026, 14:31 UTC

1 67448C 26008D   26257.60534722 -.00025530  00000+0 -92541-3 0  2573
2 67448  43.0003 218.2725 0001083 266.9342 146.3479 15.27565995    11

Track STARLINK-36423 in real time with AllMySat

Download on the App Store